Location: Launois
(49.6535°N, 4.5395°E)
Time: 02:47:20
(UTC+00:00)

Cosmos 2219 Rocket - Pass Details

Date: 23 May 2024
Orbit: 826 x 847 km, 71.0° (Epoch: 21 June)

Event Time Altitude Azimuth Distance (km) Brightness Sun altitude
Rises 01:48:12 0° 333° (NNW) 3,398 5.8 -14.1°
Reaches altitude 10° 01:50:45 10° 339° (NNW) 2,463 5.1 -13.8°
Maximum altitude 01:56:13 49° 54° (NE) 1,085 3.2 -13.4°
Drops below altitude 10° 02:01:41 10° 128° (SE) 2,461 4.6 -12.9°
Sets 02:04:13 0° 134° (SE) 3,395 5.2 -12.6°
